Home   Weather   Kristiansand   Past weeks

Flag for Norway Past Weather in Kristiansand, Norway — Yesterday and Last 2 Weeks

Now
50 °F

Passing clouds.


Feels Like: 48 °F
Forecast: 54 / 61 °F
Wind: 5 mph from Northeast

Location: Kristiansand / Kjevik

Current Time: Sep 27, 2016 at 10:45:53 AM

Latest Report: Sep 27, 2016 at 9:50 AM


Visibility: N/A

Pressure: 30.21 "Hg

Humidity: 94%

Dew Point: 48 °F

Location of KristiansandLocation

Past Weather in Kristiansand — Graph

°F

Kristiansand Temperature Yesterday

Maximum temperature yesterday: 64 °F (at 1:20 PM)
Minimum temperature yesterday: 46 °F (at 10:50 PM)
Average temperature yesterday: 58 °F

High & Low Weather Summary for the Past Weeks

 TemperatureHumidityPressure
High79 °F (Sep 15, 2:20 PM)100% (Sep 14, 11:20 PM)30.24 "Hg (Sep 14, 11:20 PM)
Low45 °F (Sep 18, 6:20 AM)49% (Sep 18, 1:20 PM)29.98 "Hg (Sep 16, 6:50 AM)
Average59 °F85%30.12 "Hg
* Reported Sep 12 9:20 AM — Sep 27 9:20 AM, Kristiansand, Weather by CustomWeather, © 2016

Note: Actual official high and low records may vary slightly from our data, if they occured in-between our weather recording intervals... More about our weather records

Advertising

Kristiansand Weather History for the Previous 24 Hours

Scroll right to see more
 ConditionsComfort  
Time TempWeatherWind HumidityBarometerVisibility
9:20 AM
Tue, Sep 27
48 °FPassing clouds.7 mph94%30.21 "HgN/A
8:50 AM46 °FPassing clouds.5 mph93%30.21 "HgN/A
8:20 AM45 °FScattered clouds.6 mph100%30.21 "HgN/A
7:50 AM46 °FScattered clouds.6 mph93%30.21 "HgN/A
7:20 AM45 °FPassing clouds.6 mph100%30.21 "HgN/A
6:50 AM45 °FPassing clouds.6 mph100%30.21 "HgN/A
6:20 AM45 °FPassing clouds.6 mph100%30.21 "HgN/A
5:50 AM45 °FPartly cloudy.6 mph100%30.21 "HgN/A
5:20 AM46 °FMostly cloudy.6 mph93%30.24 "HgN/A
4:50 AM45 °FPartly cloudy.6 mph100%30.24 "HgN/A
4:20 AM45 °FPassing clouds.6 mph100%30.24 "HgN/A
3:50 AM45 °FPassing clouds.6 mph100%30.24 "HgN/A
3:20 AM45 °FPartly cloudy.6 mph93%30.24 "HgN/A
2:50 AM46 °FPassing clouds.6 mph93%30.24 "HgN/A
2:20 AM46 °FPartly cloudy.7 mph93%30.24 "HgN/A
1:50 AM45 °FPartly cloudy.6 mph93%30.24 "HgN/A
1:20 AM45 °FPassing clouds.5 mph100%30.24 "HgN/A
12:50 AM46 °FPassing clouds.6 mph93%30.24 "HgN/A
12:20 AM46 °FPassing clouds.5 mph100%30.24 "HgN/A
11:50 PM
Mon, Sep 26
46 °FPassing clouds.6 mph100%30.24 "HgN/A
11:20 PM48 °FOvercast.5 mph94%30.24 "HgN/A
10:50 PM46 °FClear.7 mph100%30.24 "Hg10 mi
10:20 PM48 °FClear.3 mph94%30.24 "Hg10 mi
9:50 PM48 °FClear.7 mph94%30.24 "Hg10 mi
9:20 PM50 °FClear.6 mph94%30.21 "Hg10 mi
8:50 PM50 °FClear.6 mph94%30.21 "Hg10 mi
8:20 PM52 °FClear.3 mph94%30.21 "Hg10 mi
7:50 PM52 °FClear.5 mph88%30.21 "Hg10 mi
7:20 PM59 °FClear.8 mph72%30.21 "Hg10 mi
6:50 PM59 °FPassing clouds.8 mph72%30.18 "HgN/A
6:20 PM61 °FPassing clouds.8 mph63%30.18 "HgN/A
5:50 PM61 °FPassing clouds.10 mph68%30.18 "HgN/A
5:20 PM63 °FPassing clouds.10 mph59%30.18 "HgN/A
4:50 PM63 °FPassing clouds.9 mph64%30.18 "HgN/A
4:20 PM61 °FScattered clouds.13 mph68%30.18 "HgN/A
3:50 PM63 °FScattered clouds.12 mph64%30.18 "HgN/A
3:20 PM61 °FScattered clouds.13 mph72%30.18 "HgN/A
2:50 PM63 °FPassing clouds.14 mph64%30.18 "HgN/A
2:20 PM63 °FScattered clouds.12 mph64%30.18 "HgN/A
1:50 PM64 °FScattered clouds.10 mph60%30.15 "HgN/A
1:20 PM64 °FScattered clouds.7 mph68%30.15 "HgN/A
12:50 PM61 °FScattered clouds.9 mph63%30.15 "HgN/A
12:20 PM63 °FScattered clouds.6 mph64%30.15 "HgN/A
11:50 AM61 °FScattered clouds.8 mph68%30.15 "HgN/A
11:20 AM61 °FPassing clouds.7 mph68%30.12 "HgN/A
10:50 AM61 °FPassing clouds.3 mph68%30.12 "HgN/A
10:20 AM61 °FPassing clouds.2 mph72%30.12 "HgN/A
Weather by CustomWeather, © 2016

See weather overviewHow to use our weather pages